Simultaneous Nadir Overpasses (SNOs) Predictions

Prediction of SNOs between GOES-17 and AQUA Satellite Orbit:

Table of predicted SNOs for the next 14.0 days since TLE Epoch: 9/30/2023
Index Date Time (GOES-17) GOES-17 Lat,Lon AQUA Lat,Lon Distance(km) Time Diff (sec)
1 09/30/2023 20:51:25 -0.00,-104.69 0.16,-103.92 87.99 80
2 10/01/2023 09:12:02 0.00,-104.72 0.89,-108.92 476.89 80
3 10/02/2023 20:36:47 -0.00,-104.70 0.92,-100.35 494.71 80
4 10/03/2023 08:57:24 0.00,-104.72 0.11,-105.35 70.30 80
5 10/05/2023 08:40:05 0.00,-104.73 -0.66,-101.77 336.67 80
6 10/05/2023 21:00:50 -0.00,-104.70 -0.46,-106.79 238.23 80
7 10/07/2023 20:48:50 0.00,-104.70 0.31,-103.21 169.41 80
8 10/08/2023 09:09:27 -0.00,-104.74 0.75,-108.20 394.72 80
9 10/10/2023 08:52:06 -0.00,-104.74 -0.02,-104.62 13.69 80
10 10/12/2023 08:37:24 -0.00,-104.75 -0.79,-101.03 422.76 80
11 10/12/2023 20:58:09 0.00,-104.72 -0.29,-106.06 151.93 80
